Date String (YYYY-MM-DD hh:mm:ss) UTC,Instrument flags,Ambient pressure (hPa),Sample flow (lpm),Bypass flow (lpm),Sample temperature (°C),Ambient temperature (°C),ASC tube jacket temperature (°C),LED temperature (°C),Box temperature (°C),Sample RH (%),Span deviation,Mass concentration (μg/m³),Mass concentration (μg/m³),Mass concentration (μg/m³)
DateTimeUTC,F1_M11,P_M11,Q1_M11,Q2_M11,T1_M11,T2_M11,T3_M11,T4_M11,T5_M11,U1_M11,ZSPAN_M11,X2_M11,X0_M11,X1_M11
2023-02-02 12:00:00,,0829.7,4.97,0.00,22.8,21.4,00.0,31.6,24.5,09.0,0000.0,0003.82,0006.72,0003.46
2023-02-02 12:01:00,,0829.7,4.98,0.00,22.8,21.4,00.0,31.6,24.5,09.0,0000.0,0003.85,0007.13,0003.46
2023-02-02 12:02:00,,0829.7,4.98,0.00,22.8,21.3,00.0,31.6,24.5,09.0,0000.0,0003.84,0007.79,0003.44
2023-02-02 12:03:00,,0829.7,5.01,0.00,22.8,21.3,00.0,31.6,24.5,09.0,0000.0,0003.80,0007.74,0003.42
2023-02-02 12:04:00,,0829.8,5.00,0.00,22.8,21.3,00.0,31.6,24.5,09.0,0000.0,0003.77,0007.74,0003.38
2023-02-02 12:05:00,,0829.8,4.98,0.00,22.7,21.2,00.0,31.6,24.5,09.0,0000.0,0003.71,0007.72,0003.32
2023-02-02 12:06:00,,0829.8,5.00,0.00,22.7,21.2,00.0,31.6,24.4,09.0,0000.0,0003.63,0007.59,0003.25
2023-02-02 12:07:00,,0829.9,5.01,0.00,22.7,21.2,00.0,31.6,24.4,09.0,0000.0,0003.57,0007.42,0003.19
2023-02-02 12:08:00,,0829.8,5.02,0.00,22.7,21.2,00.0,31.6,24.4,09.0,0000.0,0003.54,0007.67,0003.14
2023-02-02 12:09:00,,0829.8,5.00,0.00,22.7,21.2,00.0,31.6,24.4,09.0,0000.0,0003.51,0007.62,0003.08
2023-02-02 12:10:00,,0829.8,5.03,0.00,22.7,21.2,00.0,31.6,24.4,09.0,0000.0,0003.49,0007.80,0002.99
2023-02-02 12:11:00,,0829.8,4.98,0.00,22.6,21.1,00.0,31.5,24.4,09.0,0000.0,0003.46,0007.73,0002.91
2023-02-02 12:12:00,,0829.9,5.02,0.00,22.6,21.0,00.0,31.5,24.4,09.1,0000.0,0003.41,0007.52,0002.84
2023-02-02 12:13:00,,0829.9,4.96,0.00,22.6,20.9,00.0,31.5,24.3,09.1,0000.0,0003.41,0006.73,0002.82
2023-02-02 12:14:00,,0829.9,5.03,0.00,22.6,21.1,00.0,31.5,24.4,09.1,0000.0,0003.39,0006.69,0002.79
2023-02-02 12:15:00,,0829.9,4.99,0.00,22.7,21.9,00.0,31.5,24.6,09.1,0000.0,0003.39,0006.82,0002.78
2023-02-02 12:16:00,,0830.0,5.00,0.00,22.8,22.8,00.0,31.5,24.8,09.0,0000.0,0003.40,0007.66,0002.82
2023-02-02 12:17:00,,0830.0,5.00,0.00,22.8,22.9,00.0,31.5,24.9,09.0,0000.0,0003.44,0008.06,0002.89
2023-02-02 12:18:00,,0830.0,4.99,0.00,22.8,22.5,00.0,31.5,24.8,09.0,0000.0,0003.46,0008.01,0002.95
2023-02-02 12:19:00,,0830.0,5.01,0.00,22.8,22.2,00.0,31.6,24.7,09.0,0000.0,0003.50,0007.84,0003.02
2023-02-02 12:20:00,,0830.0,4.99,0.00,22.8,21.9,00.0,31.6,24.6,08.9,0000.0,0003.53,0007.86,0003.11
2023-02-02 12:21:00,,0830.1,5.03,0.00,22.8,21.7,00.0,31.6,24.6,08.9,0000.0,0003.56,0007.67,0003.15
2023-02-02 12:22:00,,0830.1,5.00,0.00,22.8,21.6,00.0,31.6,24.6,09.0,0000.0,0003.58,0007.68,0003.17
2023-02-02 12:23:00,,0830.1,5.00,0.00,22.8,21.5,00.0,31.6,24.6,09.0,0000.0,0003.58,0007.65,0003.19
2023-02-02 12:24:00,,0830.1,4.98,0.00,22.8,21.4,00.0,31.6,24.5,09.0,0000.0,0003.57,0007.83,0003.21
2023-02-02 12:25:00,,0830.1,5.00,0.00,22.8,21.4,00.0,31.6,24.5,09.0,0000.0,0003.56,0007.94,0003.23
2023-02-02 12:26:00,,0830.1,4.98,0.00,22.7,21.3,00.0,31.6,24.5,09.0,0000.0,0003.57,0007.83,0003.25
2023-02-02 12:27:00,,0830.1,4.99,0.00,22.7,21.3,00.0,31.6,24.5,09.0,0000.0,0003.56,0007.01,0003.25
2023-02-02 12:28:00,,0830.1,4.99,0.00,22.7,21.3,00.0,31.6,24.5,09.0,0000.0,0003.57,0006.43,0003.26
2023-02-02 12:29:00,,0830.1,5.01,0.00,22.7,21.3,00.0,31.6,24.4,09.0,0000.0,0003.57,0006.53,0003.24
2023-02-02 12:30:00,,0830.1,4.98,0.00,22.7,21.2,00.0,31.6,24.4,09.0,0000.0,0003.55,0006.46,0003.24
2023-02-02 12:31:00,,0830.1,5.00,0.00,22.7,21.2,00.0,31.6,24.4,09.0,0000.0,0003.53,0006.41,0003.22
2023-02-02 12:32:00,,0830.1,5.01,0.00,22.7,21.1,00.0,31.6,24.4,09.0,0000.0,0003.50,0006.37,0003.20
2023-02-02 12:33:00,,0830.1,4.99,0.00,22.6,21.0,00.0,31.5,24.3,09.0,0000.0,0003.46,0006.31,0003.18
2023-02-02 12:34:00,,0830.1,5.01,0.00,22.6,20.9,00.0,31.5,24.3,09.0,0000.0,0003.48,0006.47,0003.18
2023-02-02 12:35:00,,0830.1,4.99,0.00,22.6,20.9,00.0,31.5,24.3,09.0,0000.0,0003.48,0006.09,0003.18
2023-02-02 12:36:00,,0830.1,5.01,0.00,22.6,20.8,00.0,31.5,24.3,09.0,0000.0,0003.51,0005.71,0003.18
2023-02-02 12:37:00,,0830.1,5.02,0.00,22.6,21.5,00.0,31.4,24.4,09.0,0000.0,0003.50,0005.88,0003.16
2023-02-02 12:38:00,,0830.1,5.02,0.00,22.7,22.5,00.0,31.4,24.7,09.0,0000.0,0003.50,0006.22,0003.14
2023-02-02 12:39:00,,0830.1,4.99,0.00,22.8,23.0,00.0,31.5,24.9,09.0,0000.0,0003.53,0006.36,0003.15
2023-02-02 12:40:00,,0830.2,5.00,0.00,22.8,22.7,00.0,31.5,24.8,08.9,0000.0,0003.57,0006.55,0003.20
2023-02-02 12:41:00,,0830.1,5.00,0.00,22.8,22.4,00.0,31.5,24.7,08.9,0000.0,0003.63,0006.74,0003.26
2023-02-02 12:42:00,,0830.1,5.00,0.00,22.8,22.0,00.0,31.6,24.7,08.9,0000.0,0003.69,0007.07,0003.31
2023-02-02 12:43:00,,0830.1,5.01,0.00,22.8,21.8,00.0,31.6,24.6,08.9,0000.0,0003.75,0007.25,0003.36
2023-02-02 12:44:00,,0830.1,5.00,0.00,22.8,21.6,00.0,31.6,24.6,08.9,0000.0,0003.83,0007.44,0003.42
2023-02-02 12:45:00,,0830.1,5.04,0.00,22.8,21.5,00.0,31.6,24.6,08.9,0000.0,0003.89,0007.55,0003.47
2023-02-02 12:46:00,,0830.1,5.01,0.00,22.8,21.4,00.0,31.6,24.5,08.9,0000.0,0003.96,0007.67,0003.51
2023-02-02 12:47:00,,0830.1,5.00,0.00,22.8,21.4,00.0,31.6,24.5,08.9,0000.0,0003.98,0007.69,0003.53
2023-02-02 12:48:00,,0830.1,5.00,0.00,22.7,21.3,00.0,31.6,24.5,08.9,0000.0,0004.01,0007.58,0003.56
2023-02-02 12:49:00,,0830.1,5.01,0.00,22.7,21.3,00.0,31.6,24.5,08.9,0000.0,0004.03,0007.43,0003.58
2023-02-02 12:50:00,,0830.1,5.01,0.00,22.7,21.2,00.0,31.6,24.5,09.0,0000.0,0004.02,0007.63,0003.58
2023-02-02 12:51:00,,0830.2,4.98,0.00,22.7,21.1,00.0,31.6,24.4,09.0,0000.0,0003.97,0007.63,0003.55
2023-02-02 12:52:00,,0830.1,5.01,0.00,22.7,21.0,00.0,31.6,24.4,09.0,0000.0,0003.91,0007.55,0003.50
2023-02-02 12:53:00,,0830.1,5.01,0.00,22.6,21.0,00.0,31.6,24.3,09.0,0000.0,0003.86,0007.45,0003.46
2023-02-02 12:54:00,,0830.1,4.96,0.00,22.6,20.9,00.0,31.5,24.3,09.1,0000.0,0003.85,0007.47,0003.42
2023-02-02 12:55:00,,0830.1,5.04,0.00,22.6,20.9,00.0,31.5,24.2,09.1,0000.0,0003.79,0007.36,0003.37
2023-02-02 12:56:00,,0830.2,4.97,0.00,22.6,20.9,00.0,31.5,24.2,09.1,0000.0,0003.72,0007.32,0003.33
2023-02-02 12:57:00,,0830.2,5.06,0.00,22.5,20.9,00.0,31.5,24.2,09.1,0000.0,0003.71,0007.60,0003.31
2023-02-02 12:58:00,,0830.2,4.97,0.00,22.5,20.9,00.0,31.5,24.2,09.1,0000.0,0003.72,0007.65,0003.31
2023-02-02 12:59:00,,0830.3,5.02,0.00,22.5,21.0,00.0,31.5,24.2,09.1,0000.0,0003.76,0007.81,0003.32
